Regional Weather Roundup
Issued by NWS

Home | Current Version | Previous Version | Graphics & Text | Print | Product List | Glossary On
Versions: 1 2 3 4 5 6 7 8 9 10 11 12 13 14 15 16 17 18 19 20 21 22 23 24 25 26 27
000
ASUS45 KTFX 141110
RWRMT
MONTANA REGIONAL WEATHER ROUNDUP
NATIONAL WEATHER SERVICE GREAT FALLS MT
400 AM MST THU DEC 14 2017

NOTE: "FAIR" INDICATES FEW OR NO CLOUDS BELOW 12000 FEET WITH NO
SIGNIFICANT WEATHER AND/OR OBSTRUCTIONS TO VISIBILITY.

MTZ001>007-043-141200-
WEST OF THE DIVIDE

CITY           SKY/WX    TMP DP  RH WIND       PRES   REMARKS
KALISPELL      CLOUDY    25  23  92 CALM      30.53F
MISSOULA       CLOUDY    27  24  89 CALM      30.52S
BUTTE          CLOUDY    23  20  88 CALM      30.41F
MULLAN PASS    FAIR      19  17  92 S9        30.37F FOG     WCI   8
ANACONDA         N/A     25  19  80 W7        30.43F WCI  17
DEER LODGE       N/A     25  25 100 CALM      30.47S
EUREKA           N/A     23  18  80 MISG      30.56F
HAMILTON         N/A     21  19  93 CALM      30.50R VSB 0
LIBBY            N/A     27  25  93 CALM      30.54F
RONAN            N/A     27  24  88 CALM      30.52R
THOMPSON FALLS   N/A     27  24  88 E3        30.55F
$$

MTZ008-052>055-141200-
SOUTHWEST MONTANA

CITY           SKY/WX    TMP DP  RH WIND       PRES   REMARKS
BOZEMAN        FOG       26  24  92 NW6       30.44S VSB 1/4 WCI  19
DILLON         FAIR      15  11  83 SE8       30.40F WCI   4
W YELLOWSTONE  FAIR      -2  -6  84 CALM      30.37R
ENNIS          CLOUDY    25  21  86 NE5       30.45S
THREE FORKS      N/A     26  24  92 CALM      30.38S VSB 0
TWIN BRIDGES     N/A     15   8  73 CALM      30.35S
$$

MTZ009-010-012-014-046-048-049-054-141200-
EAST SLOPES AND CENTRAL MONTANA

CITY           SKY/WX    TMP DP  RH WIND       PRES   REMARKS
CUT BANK       FAIR      24  19  81 W14       30.35F WCI  12
GREAT FALLS    FAIR      26  21  81 SW12      30.38F WCI  16
MALMSTROM AFB  FAIR      24  21  85 SW12      30.38F WCI  13
HELENA         FOG       11  10  96 CALM      30.44S VSB 1/4
CHOTEAU          N/A     25  19  80 SW6       30.38F WCI  18
$$

MTZ011-013-016-021-045-047-050-051-141200-
NORTH CENTRAL MONTANA

CITY           SKY/WX    TMP DP  RH WIND       PRES   REMARKS
HAVRE          FAIR      24  21  88 SW13      30.34S WCI  12
LEWISTOWN      FAIR      27  22  81 W13       30.32S WCI  16
N BAR RANCH    FAIR      30  19  64 NW29G39   30.24S WCI  15
CHINOOK          N/A     27  23  86 W8G16     30.32S WCI  18
$$

MTZ017>020-022>027-061-062-141200-
NORTHEAST MONTANA

CITY           SKY/WX    TMP DP  RH WIND       PRES   REMARKS
GLASGOW        CLOUDY    33  26  75 NW18      30.21S WCI  22
GLENDIVE       CLOUDY    32  26  78 NW20      30.15R WCI  20
JORDAN           N/A     33  24  69 NW17      30.23S WCI  22
SIDNEY         MIX PCPN  34  28  79 NW13      30.11R WCI  25
WOLF POINT     CLOUDY    35  28  75 W14       30.19R WCI  26
MALTA          CLOUDY    32  25  74 NW13      30.29R WCI  22
PLENTYWOOD       N/A     32  28  86 NW13G21   30.11R WCI  22
POPLAR           N/A     34  28  80 NW17      30.17R WCI  23
$$

MTZ028>42-056>058-141200-
SOUTHCENTRAL AND SOUTHEAST MONTANA

CITY           SKY/WX    TMP DP  RH WIND       PRES   REMARKS
BAKER          CLOUDY    31  29  92 NW21G26   30.12R WCI  18
BILLINGS       FAIR      27  21  78 W8        30.30S WCI  19
LIVINGSTON     CLOUDY    26  23  88 NW14      30.37F WCI  14
MILES CITY     CLOUDY    34  25  69 NW17G23   30.21S WCI  23
BIG TIMBER     CLEAR     32  23  69 SW18G31   30.34F WCI  20
FORSYTH          N/A     32  23  69 W10       30.25R WCI  24
LAUREL           N/A     32  23  69 W12       30.31S WCI  23
ROUNDUP          N/A     31  17  56 W3        30.17R
$$

REGIONAL REPORTS...DAKOTAS

CITY           SKY/WX    TMP DP  RH WIND       PRES   REMARKS
WILLISTON      CLOUDY    34  27  75 N16G25    30.09R WCI  24
MINOT          CLOUDY    33  28  81 NW13      29.98R WCI  24
DICKINSON      CLOUDY    31  28  89 NW23      30.01R WCI  18
BEACH          CLOUDY    30  28  93 NW18G25   30.13R WCI  18
CROSBY         CLOUDY    30  28  93 NW21G29   30.08R WCI  17
TIOGA          MIX PCPN  30  30 100 MISG      30.05R
WATFORD CITY   CLOUDY    32  27  80 NW16G25   30.07R WCI  21
BISMARCK       CLOUDY    31  30  96 NW6       29.98S WCI  25
GRAND FORKS    CLOUDY    18  15  88 SW3       29.98F
FARGO          CLOUDY    19  15  84 CALM      30.00S
BUFFALO SD       N/A     33  28  81 NW28G41   30.00R WCI  20
RAPID CITY     CLOUDY    38  25  59 NW28G36   30.06R WCI  26
$$

REGIONAL REPORTS...WYOMING/IDAHO/WASHINGTON

CITY           SKY/WX    TMP DP  RH WIND       PRES   REMARKS
GILLETTE       MOCLDY    34  23  64 NW18G31   30.15R WCI  23
SHERIDAN       MOCLDY    37  24  59 NW29G39   30.23R WCI  25
BUFFALO WY     FLURRIES  36  19  50 N35G52    30.17R WCI  22
CODY           FAIR      24  21  88 CALM      30.28F
YELLOWSTONE LA   N/A      5   1  83 CALM      30.35R
IDAHO FALLS    FOG       22  21  96 S3        30.44R VSB 3/4
SALMON         CLOUDY    21  19  92 CALM      30.50S
BOISE          CLOUDY    25  22  88 S12       30.51S WCI  14
SPOKANE        CLOUDY    30  27  88 CALM      30.52F
$$

REGIONAL REPORTS...ALBERTA

CITY           SKY/WX    TMP DP  RH WIND       PRES   REMARKS
EDMONTON       CLEAR     25  19  80 SW6       30.25F WCI  18
CALGARY        MOCLDY    23  18  80 VRB2      30.30F
LETHBRIDGE     CLEAR     21  16  79 SW10      30.36S WCI  10
MEDICINE HAT   CLEAR     19  18  93 W5        30.34F
$$

REGIONAL REPORTS...SASKATCHEWAN

CITY           SKY/WX    TMP DP  RH WIND       PRES   REMARKS
SWIFT CURRENT  CLOUDY    30  25  80 W13G18    30.21R WCI  20
REGINA         CLOUDY    30  27  86 NW18      30.14R WCI  18
SASKATOON      MOCLDY    27  23  86 W8        30.18F WCI  18
$$




USA.gov is the U.S. government's official web portal to all federal, state and local government web resources and services.